Location: Skalnate Pleso
(49.1889°N, 20.2450°E)
Time: 11:36:51
(UTC+02:00)

COSMOS 2428 - Pass Details

Date: 25 February 2020
Orbit: 846 x 856 km, 70.9° (Epoch: 08 April)

Event Time Altitude Azimuth Distance (km) Brightness Sun altitude
Exits shadow 03:52:45 12° 333° (NNW) 2,393 4.9 -26.3°
Maximum altitude 03:53:02 12° 336° (NNW) 2,390 5.0 -26.3°
Drops below altitude 10° 03:54:55 10° 355° (N) 2,500 5.3 -26.0°
Sets 03:59:27 0° 28° (NNE) 3,439 6.5 -25.3°
